Flag for France Weather past 2 weeks in Marseille, France

Now
63 °F

Passing clouds.


Feels Like: 63 °F
Forecast: 57 / 63 °F
Wind: 10 mph from East

Location: Marseille / Marignane

Current Time: Apr 26, 2015 at 11:47:54 PM

Latest Report: Apr 26, 2015 at 11:00 PM


Visibility: N/A

Pressure: 29.71 "Hg

Humidity: 68%

Dew point: 52 °F

Location of MarseilleLocation

Historic Weather in Marseille — Graph

°F

Marseille temperature yesterday

Maximum temperature yesterday: 68 °F (at 1:00 PM)
Minimum temperature yesterday: 59 °F (at 12:00 AM)
Average temperature yesterday: 63 °F

Past Weeks' High & Low Weather Summary

 TemperatureHumidityPressure
High73 °F (Apr 13, 2:30 PM)94% (Apr 12, 1:30 AM)30.42 "Hg (Apr 12, 1:30 AM)
Low43 °F (Apr 12, 6:30 AM)35% (Apr 16, 4:30 PM)29.71 "Hg (Apr 26, 7:00 PM)
Average60 °F69%30.09 "Hg
* Reported Apr 11 10:00 PM — Apr 26 10:30 PM, Marseille, Weather by CustomWeather, © 2015

Note: Actual official high and low records may vary slightly from our data, if they occured in-between our weather recording intervals... More about our weather records

Advertising

Marseille weather history for previous 24 hours

 ConditionsComfort  
Time TempWeatherWind HumidityBarometerVisibility
10:30 PM
Sun, Apr 26
63 °FPassing clouds.9 mph68%29.71 "HgN/A
10:00 PM61 °FPassing clouds.8 mph72%29.71 "HgN/A
9:30 PM61 °FBroken clouds.7 mph72%29.71 "HgN/A
9:00 PM61 °FLight rain. Broken clouds.12 mph72%29.71 "HgN/A
8:30 PM61 °FPartly sunny.8 mph72%29.71 "HgN/A
8:00 PM61 °FPartly sunny.8 mph72%29.71 "HgN/A
7:30 PM61 °FLight rain. Partly sunny.15 mph77%29.71 "HgN/A
7:00 PM63 °FLight rain. Partly sunny.16 mph73%29.71 "HgN/A
6:30 PM66 °FBroken clouds.18 mph60%29.74 "HgN/A
6:00 PM66 °FBroken clouds.14 mph60%29.74 "HgN/A
5:30 PM66 °FBroken clouds.12 mph60%29.74 "HgN/A
5:00 PM66 °FBroken clouds.14 mph60%29.74 "HgN/A
4:30 PM66 °FPartly sunny.17 mph60%29.74 "HgN/A
4:00 PM66 °FPartly sunny.20 mph60%29.77 "HgN/A
3:30 PM66 °FPartly sunny.17 mph56%29.77 "HgN/A
3:00 PM66 °FPartly sunny.15 mph60%29.80 "HgN/A
2:30 PM68 °FPartly sunny.20 mph56%29.80 "HgN/A
2:00 PM68 °FPartly sunny.16 mph53%29.80 "HgN/A
1:30 PM68 °FClear.16 mph56%29.80 "HgN/A
1:00 PM68 °FPartly sunny.21 mph53%29.83 "HgN/A
12:30 PM68 °FPartly sunny.21 mph56%29.83 "HgN/A
12:00 PM68 °FScattered clouds.17 mph53%29.83 "HgN/A
11:30 AM70 °FScattered clouds.17 mph50%29.83 "HgN/A
11:00 AM70 °FScattered clouds.16 mph46%29.83 "HgN/A
10:30 AM68 °FScattered clouds.14 mph49%29.83 "HgN/A
10:00 AM66 °FBroken clouds.14 mph56%29.86 "HgN/A
9:30 AM64 °FBroken clouds.13 mph60%29.86 "HgN/A
9:00 AM63 °FBroken clouds.9 mph68%29.86 "HgN/A
8:30 AM63 °FBroken clouds.16 mph68%29.86 "HgN/A
8:00 AM61 °FBroken clouds.14 mph72%29.86 "HgN/A
7:30 AM61 °FPartly cloudy.12 mph72%29.86 "HgN/A
7:00 AM61 °FPartly cloudy.9 mph72%29.86 "HgN/A
6:30 AM59 °FPartly cloudy.10 mph77%29.86 "HgN/A
6:00 AM59 °FPartly cloudy.8 mph77%29.86 "HgN/A
5:30 AM59 °FPartly cloudy.8 mph72%29.86 "HgN/A
5:00 AM59 °FPartly cloudy.8 mph68%29.86 "HgN/A
4:30 AM59 °FPartly cloudy.9 mph68%29.89 "HgN/A
4:00 AM59 °FPassing clouds.8 mph68%29.89 "HgN/A
3:30 AM61 °FMostly cloudy.7 mph68%29.92 "HgN/A
3:00 AM61 °FOvercast.6 mph63%29.92 "HgN/A
2:30 AM61 °FMostly cloudy.2 mph63%29.92 "HgN/A
2:00 AM61 °FOvercast.5 mph68%29.92 "HgN/A
1:30 AM61 °FPassing clouds.9 mph68%29.95 "HgN/A
1:00 AM61 °FPassing clouds.8 mph68%29.95 "HgN/A
12:30 AM61 °FPassing clouds.7 mph68%29.95 "HgN/A
12:00 AM59 °FPartly cloudy.7 mph72%29.95 "HgN/A
11:00 PM
Sat, Apr 25
61 °FPassing clouds.6 mph68%29.95 "HgN/A
Weather by CustomWeather, © 2015

See weather overviewHow to use our weather pages